Terminal Aerodrome Forecast
Issued by NWS

Home | Current Version | Previous Version | Text Only | Print | Product List | Glossary On
Versions: 1 2 3 4 5 6 7 8 9 10 11 12 13 14 15 16 17 18 19 20 21 22 23 24 25 26 27 28 29 30 31 32 33 34 35 36 37 38 39 40 41 42 43 44 45 46 47 48 49 50
000
FTUS41 KCTP 210611 AAA
TAFLNS
TAF AMD
KLNS 210611Z 2106/2206 22005KT P6SM VCSH BKN040 OVC060
      TEMPO 2106/2107 3SM SHRA BR OVC035
     FM210900 VRB04KT 4SM BR BKN050
     FM211300 29005KT P6SM BKN050
     FM211900 30007KT P6SM VCSH BKN040=

USA.gov is the U.S. government's official web portal to all federal, state and local government web resources and services.